TimeHST,TemperatureF,Dew PointF,Humidity,Sea Level PressureIn,VisibilityMPH,Wind Direction,Wind SpeedMPH,Gust SpeedMPH,PrecipitationIn,Events,Conditions,WindDirDegrees,DateUTC
12:54 AM,69.1,57.0,65,30.10,10.0,NE,10.4,-,N/A,,Clear,40,2012-03-28 10:54:00
1:54 AM,68.0,55.9,65,30.08,10.0,NE,5.8,-,N/A,,Clear,40,2012-03-28 11:54:00
2:54 AM,66.0,54.0,65,30.06,10.0,NNE,9.2,-,N/A,,Clear,30,2012-03-28 12:54:00
3:54 AM,66.0,54.0,65,30.06,3.0,NNE,8.1,-,N/A,,Haze,30,2012-03-28 13:54:00
4:54 AM,66.0,55.0,68,30.06,10.0,NNE,8.1,-,N/A,,Clear,30,2012-03-28 14:54:00
5:54 AM,66.0,55.9,70,30.08,10.0,NNE,5.8,-,N/A,,Scattered Clouds,20,2012-03-28 15:54:00
6:54 AM,66.9,57.0,70,30.09,10.0,NNE,6.9,-,N/A,,Partly Cloudy,30,2012-03-28 16:54:00
7:54 AM,70.0,57.0,63,30.12,10.0,NE,5.8,-,N/A,,Partly Cloudy,50,2012-03-28 17:54:00
8:54 AM,75.0,59.0,57,30.12,10.0,ENE,15.0,-,N/A,,Partly Cloudy,60,2012-03-28 18:54:00
9:54 AM,77.0,59.0,54,30.12,10.0,NE,16.1,-,N/A,,Scattered Clouds,50,2012-03-28 19:54:00
10:54 AM,78.1,57.9,50,30.11,10.0,NE,21.9,-,N/A,,Partly Cloudy,40,2012-03-28 20:54:00
11:54 AM,79.0,57.9,48,30.09,10.0,NE,23.0,26.5,N/A,,Partly Cloudy,40,2012-03-28 21:54:00
12:54 PM,80.1,59.0,48,30.08,10.0,NNE,25.3,31.1,N/A,,Clear,30,2012-03-28 22:54:00
1:54 PM,80.1,59.0,48,30.05,10.0,NE,25.3,33.4,N/A,,Partly Cloudy,40,2012-03-28 23:54:00
3:54 PM,78.1,59.0,52,30.02,10.0,NE,23.0,33.4,N/A,,Partly Cloudy,50,2012-03-29 01:54:00
4:54 PM,77.0,59.0,54,30.02,10.0,ENE,18.4,28.8,N/A,,Partly Cloudy,60,2012-03-29 02:54:00
5:54 PM,73.9,59.0,59,30.04,10.0,ENE,17.3,24.2,N/A,,Partly Cloudy,60,2012-03-29 03:54:00
6:54 PM,71.1,57.9,63,30.06,10.0,ENE,11.5,-,N/A,,Partly Cloudy,60,2012-03-29 04:54:00
7:54 PM,69.1,57.0,65,30.08,10.0,East,11.5,-,N/A,,Clear,80,2012-03-29 05:54:00
8:54 PM,69.1,57.9,68,30.10,10.0,NE,15.0,-,N/A,,Clear,50,2012-03-29 06:54:00
9:54 PM,69.1,57.0,65,30.12,10.0,NE,12.7,-,N/A,,Partly Cloudy,50,2012-03-29 07:54:00
10:54 PM,69.1,57.9,68,30.12,10.0,NE,13.8,-,N/A,,Partly Cloudy,50,2012-03-29 08:54:00
11:54 PM,69.1,57.0,65,30.11,10.0,NE,11.5,-,N/A,,Partly Cloudy,50,2012-03-29 09:54:00